Regional Weather Roundup
Issued by NWS

Home | Current Version | Previous Version | Graphics & Text | Print | Product List | Glossary On
Versions: 1 2 3 4 5 6 7 8 9 10 11 12 13 14 15 16 17 18 19 20 21 22 23 24 25 26 27 28 29 30 31 32 33 34 35 36 37 38 39 40 41 42 43 44 45 46 47 48 49 50
138
ASUS43 KBIS 231302
RWRND

NORTH DAKOTA REGIONAL WEATHER ROUNDUP
NATIONAL WEATHER SERVICE BISMARCK ND
800 AM CDT THU MAR 23 2017

NOTE: "FAIR" INDICATES FEW OR NO CLOUDS BELOW 12,000 FEET WITH NO
SIGNIFICANT WEATHER AND/OR OBSTRUCTIONS TO VISIBILITY.


NDZ001>003-009>011-017-231400-
NORTHWEST NORTH DAKOTA

CITY           SKY/WX    TMP DP  RH WIND       PRES   REMARKS
WILLISTON      FAIR      32  31  96 CALM      29.74F
MINOT          FAIR      35  29  78 S7        29.75S
MINOT AFB      CLOUDY    31  28  92 S5        29.74S
$$

NDZ018>021-031>035-040>046-231400-
SOUTHWEST NORTH DAKOTA

CITY           SKY/WX    TMP DP  RH WIND       PRES   REMARKS
BISMARCK       LGT RAIN  34  31  88 E8        29.75F
DICKINSON      CLOUDY    37  32  82 CALM      29.68F
GARRISON         N/A     31  29  92 E7        29.74F
HETTINGER ARPT LGT RAIN  36  34  92 NW8       29.71S FOG
$$

NDZ004>008-012>016-024-026-027-054-231400-
NORTHEAST NORTH DAKOTA

CITY           SKY/WX    TMP DP  RH WIND       PRES   REMARKS
GRAND FORKS    CLOUDY    34  22  61 S14       29.87S
GRND FRKS AFB  CLOUDY    33  26  75 S16       29.86F
DEVILS LAKE    FAIR      31  27  85 S10       29.81S
$$

NDZ022-023-025-028>030-036>039-047>053-231400-
SOUTHEAST NORTH DAKOTA

CITY           SKY/WX    TMP DP  RH WIND       PRES   REMARKS
FARGO          CLOUDY    37  26  64 S21G32    29.89S
JAMESTOWN      MOCLDY    32  28  85 S9        29.80F
$$





USA.gov is the U.S. government's official web portal to all federal, state and local government web resources and services.